This is the latest recevied weather packets stored in our database for station/object W2JBO-5. If no packets are shown the sender has not sent any weather packets the latest 1 day(s).
| Time | Temp. | Humidity | Pressure | Rain* | Wind** | Luminosity | Snow |
|---|---|---|---|---|---|---|---|
| 1778025372 | 26.11° C | 79% | - | 0 mm | 0.89 m/s, 222° | - | - |
| 1778025068 | 26.67° C | 79% | - | 0 mm | 1.79 m/s, 239° | - | - |
| 1778024765 | 26.67° C | 79% | - | 0 mm | 0.89 m/s, 217° | - | - |
| 1778024462 | 26.67° C | 79% | - | 0 mm | 1.34 m/s, 204° | - | - |
| 1778024160 | 26.67° C | 78% | - | 0 mm | 0.45 m/s, 247° | - | - |
| 1778023857 | 26.67° C | 78% | - | 0 mm | 1.34 m/s, 181° | - | - |
| 1778023555 | 26.67° C | 77% | - | 0 mm | 2.24 m/s, 190° | - | - |
| 1778023252 | 26.67° C | 77% | - | 0 mm | 4.02 m/s, 172° | - | - |
| 1778022948 | 26.67° C | 77% | - | 0 mm | 0.89 m/s, 187° | - | - |
| 1778022648 | 26.67° C | 76% | - | 0 mm | 2.24 m/s, 225° | - | - |
| 1778022344 | 26.67° C | 77% | - | 0 mm | 0.45 m/s, 251° | - | - |
| 1778022041 | 26.67° C | 77% | - | 0 mm | 0.89 m/s, 250° | - | - |
| 1778021738 | 26.67° C | 77% | - | 0 mm | 0.45 m/s, 246° | - | - |
| 1778021434 | 26.67° C | 76% | - | 0 mm | 1.79 m/s, 191° | - | - |
| 1778021131 | 26.67° C | 76% | - | 0 mm | 1.79 m/s, 154° | - | - |
| 1778020828 | 27.22° C | 76% | 1010.7 hPa | 0 mm | 3.13 m/s, 197° | 65 W/m² | - |
| 1778020525 | 27.22° C | 76% | 1010.7 hPa | 0 mm | 0 m/s | 73 W/m² | - |
| 1778020221 | 27.22° C | 76% | 1010.7 hPa | 0 mm | 0.89 m/s, 211° | 80 W/m² | - |
| 1778019918 | 27.22° C | 75% | 1010.7 hPa | 0 mm | 0.89 m/s, 262° | 70 W/m² | - |
| 1778019614 | 27.22° C | 75% | 1010.7 hPa | 0 mm | 1.34 m/s, 206° | 80 W/m² | - |
| 1778019311 | 27.22° C | 75% | 1010.7 hPa | 0 mm | 0.89 m/s, 221° | 102 W/m² | - |
| 1778019008 | 27.22° C | 75% | 1010.7 hPa | 0 mm | 1.34 m/s, 204° | 105 W/m² | - |
| 1778018705 | 27.22° C | 74% | 1010.7 hPa | 0 mm | 1.34 m/s, 250° | 71 W/m² | - |
| 1778018403 | 27.22° C | 75% | 1010.7 hPa | 0 mm | 1.34 m/s, 193° | 86 W/m² | - |
| 1778018101 | 27.22° C | 75% | 1010.7 hPa | 0 mm | 0.89 m/s, 206° | 103 W/m² | - |
* Rain latest hour (hover to see other rain measurements)
** Current wind speed in m/s (hover to see current wind gust speed)